Tracking 18951 objects as of 21-Jan-2018
HD Live streaming from Space Station
objects crossing your sky now

SL-3 R/B

Track SL-3 R/B now!
10-day predictions
SL-3 R/B is classified as:


NORAD ID: 13403
Int'l Code: 1982-079B
Perigee: 530.5 km
Apogee: 576.0 km
Inclination: 81.2 °
Period: 95.6 minutes
Semi major axis: 6924 km
RCS: 6.1935 m2 (large)
Launch date: August 5, 1982
Source: Commonwealth of Independent States (former USSR) (CIS)
Launch site: PLESETSK MISSILE AND SPACE COMPLEX (PKMTR)

Note: This is a ROCKET BODY
aabbcc
Your satellite tracking list
Your tracking list is empty




NASA's NSSDC Master Catalog

Two Line Element Set (TLE):
1 13403U 82079B   18020.95324014 +.00000204 +00000-0 +12033-4 0  9995
2 13403 081.1693 019.8863 0032845 280.1068 079.6451 15.06769480929292
Source of the keplerian elements: AFSPC